Location: Oroua River
(40.4333°S, 175.4333°E)
Time: 12:29:26
(UTC+00:00)

Timation 1 Rocket - Pass Details

Date: 03 February 2023
Orbit: 896 x 910 km, 70.0° (Epoch: 31 March)

Event Time Altitude Azimuth Distance (km) Brightness Sun altitude
Rises 15:15:15 0° 209° (SSW) 3,550 7.7 -21.6°
Reaches altitude 10° 15:17:48 10° 212° (SSW) 2,601 6.9 -21.3°
Maximum altitude 15:23:42 61° 290° (WNW) 1,025 4.3 -20.5°
Enters shadow 15:27:28 23° 3° (N) 1,836 5.6 -20.0°
